Regional Weather Roundup
Issued by NWS Boston, MA

Current Version | Previous Version | Text Only | Print | Product List | Glossary Off
Versions: 1 2 3 4 5 6 7 8 9 10 11 12 13 14 15 16 17 18 19 20 21 22 23 24 25 26 27 28 29 30 31 32 33 34 35 36 37 38 39 40 41 42 43 44 45 46 47 48 49 50
000 ASUS41 KBOX 261910 RWRBOX REGIONAL WEATHER ROUNDUP NATIONAL WEATHER SERVICE TAUNTON MA 300 PM EDT WED JUL 26 2017 NOTE: "FAIR" INDICATES FEW OR NO CLOUDS BELOW 12,000 FEET WITH NO SIGNIFICANT WEATHER AND/OR OBSTRUCTIONS TO VISIBILITY. MAZALL-262000- EASTERN MASSACHUSETTS CITY SKY/WX TMP DP RH WIND PRES REMARKS BOSTON MOSUNNY 76 58 53 E9 30.17F BEVERLY SUNNY 76 61 59 SE8 30.17S LAWRENCE MOSUNNY 82 55 39 VRB5 30.18F BEDFORD CLOUDY 77 54 44 S6 30.15F BLUE HILL N/A 78 50 37 VRB3 30.17F NORWOOD MOSUNNY 80 53 39 VRB3 30.16F MARSHFIELD SUNNY 73 59 60 VRB6 30.17F PLYMOUTH SUNNY 79 51 37 NE8 30.18F TAUNTON SUNNY 77 54 44 CALM 30.16F NEW BEDFORD PTSUNNY 76 60 57 SW7 30.17F $$ MAZALL-262000- CAPE COD AND THE ISLANDS CITY SKY/WX TMP DP RH WIND PRES REMARKS FALMOUTH PTSUNNY 75 61 60 S7 30.19S HYANNIS SUNNY 73 59 61 VRB7 30.18F CHATHAM SUNNY 73 57 57 S6 30.20F PROVINCETOWN SUNNY 75 57 53 SW7 30.19F NANTUCKET SUNNY 68 59 73 VRB7 30.20S MARTHAS VNYRD SUNNY 73 57 57 S7 30.19F $$ MAZALL-262000- CENTRAL AND WESTERN MASSACHUSETTS CITY SKY/WX TMP DP RH WIND PRES REMARKS WORCESTER SUNNY 74 50 42 SW5 30.20F FITCHBURG MOSUNNY 80 50 34 S7 30.18S ORANGE SUNNY 78 49 35 S9 30.18F SPRINGFIELD MOSUNNY 78 56 46 SW9 30.16F WESTFIELD SUNNY 79 56 45 S6 30.17F NORTH ADAMS PTSUNNY 76 56 49 W8 30.17F PITTSFIELD PTSUNNY 75 54 47 SW8 30.19F $$ RIZALL-262000- RHODE ISLAND CITY SKY/WX TMP DP RH WIND PRES REMARKS PROVIDENCE MOSUNNY 78 59 51 SE10 30.18F NEWPORT SUNNY 73 61 65 S9 30.18F BLOCK ISLAND SUNNY 71 58 63 S8 30.20F WESTERLY SUNNY 73 58 59 S8 30.20F $$ CTZALL-262000- CONNECTICUT CITY SKY/WX TMP DP RH WIND PRES REMARKS BRADLEY INTL MOSUNNY 80 56 43 CALM 30.18F HARTFORD MOSUNNY 77 56 48 CALM 30.17F BRIDGEPORT SUNNY 74 55 51 SE6 30.19F DANBURY PTSUNNY 76 59 55 S6 30.21S GROTON MOSUNNY 71 62 73 S9 30.18F NEW HAVEN MOSUNNY 76 56 49 S9 30.20F CHESTER FAIR 73 55 53 SW8G14 30.20S MERIDEN PTSUNNY 75 59 57 SW6 30.18F WILLIMANTIC PTSUNNY 80 56 43 SW5 30.17F OXFORD MOSUNNY 73 55 53 SW7 30.21F $$ MEZ002-015-021-024-NHZ003-005-008-011-012-014-VTZ005-008-262000- NORTHERN NEW ENGLAND CITY SKY/WX TMP DP RH WIND PRES REMARKS PORTLAND ME SUNNY 77 50 38 S9 30.16S BANGOR ME MOSUNNY 82 48 30 S9 30.13F CONCORD NH MOSUNNY 81 53 37 S8 30.16F MANCHESTER NH MOSUNNY 80 50 34 S6 30.15S NASHUA NH PTSUNNY 79 51 37 VRB3 30.17S PORTSMOUTH NH MOSUNNY 79 54 42 SE9 30.15F JAFFREY NH MOSUNNY 76 53 44 VRB3 30.20S KEENE NH PTSUNNY 77 55 46 SW8 30.17F BURLINGTON VT CLOUDY 78 56 46 S16 30.13F MT. WASHINGTON PTSUNNY 52 45 76 S10 N/A $$ NYZ052-076-262000- EASTERN NEW YORK CITY SKY/WX TMP DP RH WIND PRES REMARKS ALBANY PTSUNNY 77 56 48 VRB7 30.16F NEW YORK CITY MOSUNNY 78 59 51 SW7 30.19F $$ ANZALL-262000- MARINE OBSERVATIONS STATION/POSITION TIME TEMP WIND PRES VSBY WAVE AIR SEA DIR/SP/G HT/PER (UTC) (F) (DEG/KT/KT) (MB) (MI) (FT/S) BOSTON BUOY 1850 67 66 120/ 6/ 6 1021.4F 3/ 8 BUZZARDS BAY 1800 65 210/ 9/ 10 1023.1F NANTUCKET SOUND 1850 71 1022.3F 1/ 7 MASS BAY-STELLWA 1804 67 63 150/ 2/ 4 1021.4F 3/ 8 ISLE OF SHOALS 1800 69 130/ 8/ 8 1021.7F S OF BLOCK IS 1855 73 N/A 2/ 8 $$ ......................KEY......................... SKY/WX - SKY CONDITION/PRESENT WEATHER TMP - TEMPERATURE IN FAHRENHEIT DWPT - DEWPOINT IN FAHRENHEIT RH - RELATIVE HUMIDITY IN PERCENT WIND - DIRECTION AND SPEED IN MPH PRES - MEAN SEA LEVEL PRESSURE IN INCHES OF HG WCI - WIND CHILL INDEX VSB - VISIBILITY IN MILES HX - HEAT INDEX TC - TEMPERATURE IN CELSIUS VRB - VARIABLE WIND DIRECTION N/A - NOT AVAILABLE

USA.gov is the U.S. government's official web portal to all federal, state and local government web resources and services.